Regional Weather Roundup
Issued by NWS

Home | Current Version | Previous Version | Text Only | Print | Product List | Glossary Off
Versions: 1 2 3 4 5 6 7 8 9 10 11 12 13 14 15 16 17 18 19 20 21 22 23 24 25 26 27 28 29 30 31 32 33 34 35 36 37 38 39 40 41 42 43 44 45 46 47 48 49 50

000
ASUS43 KOAX 202002
RWRNE

WEATHER ROUNDUP FOR NEBRASKA
NATIONAL WEATHER SERVICE OMAHA NE
300 PM CDT FRI APR 20 2018

NOTES: SATELLITE DATA IS BEING USED TO AUGMENT CLOUD COVER ABOVE
       12000 FEET.
       "FAIR" INDICATES FEW OR NO CLOUDS BELOW 12,000 FEET WITH NO
       SIGNIFICANT WEATHER AND/OR OBSTRUCTIONS TO VISIBILITY.


NEZ001>004-019>022-054>056-202100-
NEBRASKA PANHANDLE

CITY           SKY/WX    TMP DP  RH WIND       PRES   REMARKS
SCOTTSBLUFF    CLOUDY    39  35  86 SE24G32   30.07F WCI  28
ALLIANCE       LGT SNOW  33  33 100 SE20      30.12F VSB 3/4 WCI  21
CHADRON        LGT RAIN  43  36  76 S28G37    30.12R
GORDON         RAIN      40  36  85 S22G30    30.18R WCI  30
SIDNEY         CLOUDY    34  32  92 SE25G31   30.08F HAZE    WCI  21
$$

NEZ057>060-069>072-079>082-202100-
SOUTHWEST NEBRASKA

CITY           SKY/WX    TMP DP  RH WIND       PRES   REMARKS
NORTH PLATTE   CLOUDY    47  32  56 S9        30.23F
IMPERIAL       LGT RAIN  40  36  86 E14G23    30.18F WCI  32
LEXINGTON      LGT RAIN  50  32  50 SE9       30.26R
MCCOOK         CLOUDY    49  33  54 E6        30.20F
OGALLALA       LGT RAIN  40  37  89 SE14      30.21F WCI  32
$$

NEZ005>010-023>029-035>040-094-202100-
NORTH CENTRAL NEBRASKA

CITY           SKY/WX    TMP DP  RH WIND       PRES   REMARKS
VALENTINE      CLOUDY    50  31  48 S17       30.25R
AINSWORTH      CLOUDY    47  33  58 S15       30.26R
BROKEN BOW     CLOUDY    50  32  50 S7        30.27R
O`NEILL        CLOUDY    53  33  45 SE10      30.27F
ORD            CLOUDY    52  32  46 SE14G22   30.25R
THEDFORD       CLOUDY    48  32  54 S15       30.26R
$$

NEZ041-046>049-061>064-073>077-083>087-202100-
SOUTH CENTRAL NEBRASKA

CITY           SKY/WX    TMP DP  RH WIND       PRES   REMARKS
GRAND ISLAND   CLOUDY    56  31  38 SE20G26   30.24F
AURORA         CLOUDY    58  28  32 SE17G23   30.24F
HASTINGS       CLOUDY    56  31  38 SE17G24   30.22S
HEBRON         CLOUDY    60  29  30 SE14G22   30.24F
HOLDREGE       CLOUDY    51  33  49 SE9       30.24R
KEARNEY        CLOUDY    54  32  43 S10       30.27R
YORK             N/A     59  28  31 S20G26    30.24F
$$

NEZ011>018-030>034-042>045-202100-
NORTHEAST NEBRASKA

CITY           SKY/WX    TMP DP  RH WIND       PRES   REMARKS
NORFOLK        CLOUDY    57  30  35 SE18      30.26F
ALBION         CLOUDY    56  33  41 SE15G24   30.26F
BLAIR          PTSUNNY   60  30  31 SE16      30.31F
COLUMBUS       CLOUDY    59  30  33 SE14      30.28F
FREMONT        CLOUDY    62  30  30 SE15G22   30.30F
TEKAMAH        MOSUNNY   61  28  28 SE14G24   30.32F
WAYNE          CLOUDY    58  29  33 SE13G22   30.31F
$$

NEZ050>053-065>068-078-088>093-202100-
SOUTHEAST NEBRASKA

CITY           SKY/WX    TMP DP  RH WIND       PRES   REMARKS
LINCOLN        MOSUNNY   61  27  27 SE16G25   30.29F
OMAHA EPPLEY   CLOUDY    62  28  27 SE14G22   30.32F
BEATRICE       SUNNY     64  31  29 SE15G24   30.25F
FALLS CITY     SUNNY     61  25  25 E16G29    30.30F
NEBRASKA CITY  CLOUDY    62  31  31 SE15G22   30.30F
PLATTSMOUTH    PTSUNNY   61  28  28 SE12      30.30F
$$

NEZ044-045-051>053-067-202100-
OMAHA AREA

CITY           SKY/WX    TMP DP  RH WIND       PRES   REMARKS
OMAHA EPPLEY   CLOUDY    62  28  27 SE14G22   30.32F
BLAIR          PTSUNNY   60  30  31 SE16      30.31F
FREMONT        CLOUDY    62  30  30 SE15G22   30.30F
MILLARD        CLOUDY    62  31  32 E8G16     30.31F
OFFUTT AFB     MOSUNNY   62  30  30 SE16      30.30F
PLATTSMOUTH    PTSUNNY   61  28  28 SE12      30.30F
$$




USA.gov is the U.S. government's official web portal to all federal, state and local government web resources and services.